Location: Unspecified
(49.9820°N, 20.4363°E)
Time: 14:50:38
(UTC+02:00)

ISS - Pass Details

Date: 18 May 2018
Orbit: 402 x 407 km, 51.6° (Epoch: 22 May)

Event Time Altitude Azimuth Distance (km) Brightness Sun altitude
Exits shadow 00:15:57 19° 81° (E) 1,050 -1.7 -20.4°
Drops below altitude 10° 00:17:00 10° 76° (ENE) 1,459 -0.9 -20.4°
Sets 00:19:05 0° 73° (ENE) 2,321 0.2 -20.5°
